DW3762 Weather Reports


time (UTC)temp
F
wind
direction
speed
knots
gust
knots
rain 1hr
in
rain 24hr
in
rain mn
in
humidity
%
barometer
mb
20260505194530 63 94 0.9 3.5 0.00 0.00 0.00 71 1016.1
20260505193031 64 60 0.9 3.5 0.00 0.00 0.00 71 1016.1
20260505191530 64 73 1.7 5.2 0.00 0.00 0.00 71 1016.2
20260505190024 62 27 0.9 4.3 0.00 0.00 0.00 74 1016.1
20260505184519 61 127 1.7 3.5 0.00 0.00 0.00 76 1016.1
20260505183020 60 133 0.9 3.5 0.00 0.00 0.00 76 1016.3
20260505181519 60 142 1.7 4.3 0.00 0.00 0.00 77 1016.2
20260505180013 59 148 0.9 5.2 0.00 0.00 0.00 79 1016.2
20260505174512 59 187 0.9 5.2 0.00 0.00 0.00 78 1016.2
20260505173014 59 205 0.0 3.5 0.00 0.00 0.00 78 1016.1
20260505171510 59 237 0.9 4.3 0.00 0.00 0.00 78 1016.0
20260505170010 59 254 1.7 3.5 0.00 0.00 0.00 78 1015.9
20260505164507 58 125 0.9 3.5 0.00 0.00 0.00 80 1015.8
20260505163008 58 242 1.7 6.1 0.00 0.00 0.00 79 1015.7
20260505161518 58 136 1.7 6.1 0.00 0.00 0.00 79 1015.6
20260505153006 56 239 1.7 6.1 0.00 0.00 0.00 83 1015.6
20260505151503 56 249 0.9 4.3 0.00 0.00 0.00 84 1015.6
20260505124552 54 250 0.0 2.6 0.00 0.00 0.00 85 1014.5
20260505123047 55 204 0.0 3.5 0.00 0.00 0.00 85 1014.5
20260505121546 55 287 0.9 2.6 0.00 0.00 0.00 85 1014.4
20260505120049 54 221 1.7 4.3 0.00 0.00 0.00 85 1014.4
20260505114547 54 244 0.9 2.6 0.00 0.00 0.00 85 1014.4
20260505113044 54 237 1.7 3.5 0.00 0.00 0.00 85 1014.3
20260505111544 55 206 0.0 1.7 0.00 0.00 0.00 85 1014.4
20260505101544 54 84 0.9 3.5 0.00 0.00 0.00 85 1013.7
20260505100038 55 108 0.0 1.7 0.00 0.00 0.00 84 1013.9
20260505094535 55 138 0.0 2.6 0.00 0.00 0.00 83 1013.8
20260505093034 55 125 0.9 3.5 0.00 0.00 0.00 83 1013.7
20260505091535 56 215 0.9 4.3 0.00 0.00 0.00 82 1013.6
20260505090040 56 231 0.9 2.6 0.00 0.00 0.00 81 1013.4
20260505084527 56 244 0.0 6.1 0.00 0.00 0.00 80 1013.4
20260505083024 57 268 0.9 5.2 0.00 0.00 0.00 79 1013.4
20260505081522 58 250 1.7 4.3 0.00 0.00 0.00 79 1013.2
20260505080037 58 219 0.9 5.2 0.00 0.00 0.00 78 1013.2
20260505074523 59 233 0.9 3.5 0.00 0.00 0.00 78 1013.0
20260505073027 59 253 1.7 4.3 0.00 0.00 0.00 78 1012.8
20260505071511 59 235 1.7 5.2 0.00 0.00 0.00 77 1012.5
20260505070009 60 244 0.0 1.7 0.00 0.00 0.00 77 1012.5
20260505064508 60 247 0.9 2.6 0.00 0.00 0.00 75 1012.3
20260505063008 61 196 0.9 2.6 0.00 0.00 0.00 74 1012.1
20260505061507 62 158 0.0 5.2 0.00 0.00 0.00 74 1011.9
20260505060009 63 246 0.0 2.6 0.00 0.00 0.00 73 1011.7
20260505054506 64 316 0.9 3.5 0.00 0.00 0.00 72 1011.7
20260505053006 65 285 0.9 5.2 0.00 0.00 0.00 70 1011.4
20260505051509 65 278 1.7 4.3 0.00 0.00 0.00 69 1011.4
20260505041503 68 234 1.7 5.2 0.00 0.00 0.00 70 1010.7
20260505040003 69 242 1.7 6.1 0.00 0.00 0.00 69 1010.4
20260505034502 69 267 1.7 6.1 0.00 0.00 0.00 68 1010.1
20260505033002 70 252 1.7 6.1 0.00 0.00 0.00 67 1009.8
20260505031502 71 168 0.0 2.6 0.00 0.00 0.00 67 1009.6
20260505030002 72 238 1.7 7.0 0.00 0.00 0.00 65 1009.4
20260505024601 73 258 0.9 6.1 0.00 0.00 0.00 63 1009.4
20260505023100 73 254 2.6 7.0 0.00 0.00 0.00 62 1009.3
20260505021600 74 144 0.9 7.8 0.00 0.00 0.00 61 1009.3
20260505020103 74 222 1.7 8.7 0.00 0.00 0.00 61 1009.3
20260505014606 74 108 1.7 7.8 0.00 0.00 0.00 61 1009.3
20260505013058 75 254 1.7 10.4 0.00 0.00 0.00 60 1009.4
20260505011558 75 122 2.6 7.8 0.00 0.00 0.00 59 1009.5
20260505010058 76 146 3.5 8.7 0.00 0.00 0.00 59 1009.6
20260505004558 76 227 2.6 7.8 0.00 0.00 0.00 57 1009.7
20260505003056 76 48 1.7 9.6 0.00 0.00 0.00 57 1009.7
20260505001556 77 219 3.5 8.7 0.00 0.00 0.00 55 1009.8
20260505000057 78 265 1.7 8.7 0.00 0.00 0.00 53 1010.0
20260504234555 78 218 2.6 5.2 0.00 0.00 0.00 53 1009.9
20260504233053 78 169 2.6 9.6 0.00 0.00 0.00 52 1010.0
20260504231557 79 229 1.7 7.8 0.00 0.00 0.00 51 1010.1
20260504230053 78 214 2.6 6.1 0.00 0.00 0.00 52 1010.3
20260504224549 77 152 1.7 9.6 0.00 0.00 0.00 53 1010.5
20260504223047 77 212 1.7 7.0 0.00 0.00 0.00 52 1010.6
20260504221544 76 280 3.5 7.0 0.00 0.00 0.00 53 1010.9
20260504220042 75 251 2.6 7.8 0.00 0.00 0.00 53 1011.0
20260504214537 74 121 3.5 8.7 0.00 0.00 0.00 59 1011.2
20260504213033 73 196 3.5 9.6 0.00 0.00 0.00 56 1011.4
20260504211534 73 223 3.5 8.7 0.00 0.00 0.00 57 1011.6
20260504210039 71 119 2.6 7.8 0.00 0.00 0.00 63 1011.8
20260504204537 70 239 2.6 7.8 0.00 0.00 0.00 60 1012.1
20260504203030 69 250 3.5 9.6 0.00 0.00 0.00 61 1012.2
20260504201528 68 250 0.9 9.6 0.00 0.00 0.00 65 1012.3
20260504200028 67 292 1.7 8.7 0.00 0.00 0.00 64 1012.5